Opa Locka, FL

1:29 PM EDT on March 29, 2017 (GMT -0400)
Opa Locka

Weather History for KOPF - February, 2013

Change the Weather History Date:

Friday, February 22, 2013

  Actual Average Record
Temperature  
Mean Temperature 76 °F -  
Max Temperature 82 °F 78 °F 87 °F (1987)
Min Temperature 71 °F 62 °F 46 °F (1958)
Cooling Degree Days 12    
Growing Degree Days 26 (Base 50)    
Moisture  
Dew Point 69 °F    
Average Humidity 77    
Maximum Humidity 88    
Minimum Humidity 58    
Precipitation  
Precipitation 0.00 in - - ()
Sea Level Pressure  
Sea Level Pressure 30.07 in    
Wind  
Wind Speed 10 mph (SE)    
Max Wind Speed 16 mph    
Max Gust Speed 21 mph    
Visibility 10 miles    
Events Rain    
Averages and records for this station are not official NWS values.
T = Trace of Precipitation, MM = Missing Value Source: NWS Daily Summary

Daily Weather History Graph

Daily Weather History Graph

Search for Another Location

Airport or City:

Trip Planner

Search our weather history database for the weather conditions in past years. The results will help you decide how hot, cold, wet, or windy it might be!

Date:

Astronomy

Feb. 22, 2013 Rise Set
Actual Time 6:50 AM EST 6:18 PM EST
Civil Twilight 6:27 AM EST 6:42 PM EST
Nautical Twilight 6:00 AM EST 7:09 PM EST
Astronomical Twilight 5:33 AM EST 7:35 PM EST
Moon 3:39 PM EST (2/22) 4:22 AM EST (2/22)
Length of Visible Light 12h 14m
Length of Day
11h 28m
Waxing Gibbous, 90% of the Moon is Illuminated
Feb 22
Waxing Gibbous
Feb 25
Full
Mar 4
Last Quarter
Mar 11
New
Mar 19
First Quarter

Hourly Weather History & Observations

Time (EST) Temp. Heat Index Dew Point Humidity Pressure Visibility Wind Dir Wind Speed Gust Speed Precip Events Conditions
12:53 AM 71.6 °F - 66.2 °F 83% 30.05 in 10.0 mi ESE 8.1 mph - N/A   Clear
1:53 AM 73.0 °F - 68.0 °F 84% 30.04 in 10.0 mi ESE 8.1 mph - N/A   Scattered Clouds
2:03 AM 73.4 °F - 68.0 °F 83% 30.04 in 10.0 mi ESE 6.9 mph - N/A   Mostly Cloudy
2:50 AM 73.4 °F - 68.0 °F 83% 30.03 in 10.0 mi ESE 8.1 mph - N/A   Scattered Clouds
2:53 AM 73.0 °F - 68.0 °F 84% 30.03 in 10.0 mi ESE 8.1 mph - N/A   Scattered Clouds
3:53 AM 73.0 °F - 68.0 °F 84% 30.04 in 10.0 mi ESE 6.9 mph - N/A   Clear
4:44 AM 73.4 °F - 69.8 °F 88% 30.04 in 10.0 mi SE 5.8 mph - N/A   Mostly Cloudy
4:53 AM 73.0 °F - 69.1 °F 87% 30.04 in 10.0 mi SE 6.9 mph - N/A   Mostly Cloudy
5:12 AM 73.4 °F - 68.0 °F 83% 30.04 in 10.0 mi ESE 8.1 mph - N/A   Scattered Clouds
5:53 AM 73.0 °F - 69.1 °F 87% 30.06 in 10.0 mi ESE 8.1 mph - N/A   Partly Cloudy
6:53 AM 73.0 °F - 68.0 °F 84% 30.08 in 10.0 mi ESE 8.1 mph - N/A   Partly Cloudy
7:53 AM 75.0 °F - 69.1 °F 82% 30.09 in 10.0 mi ESE 9.2 mph - N/A   Clear
8:53 AM 78.1 °F - 69.1 °F 74% 30.10 in 10.0 mi ESE 16.1 mph 20.7 mph N/A   Mostly Cloudy
9:53 AM 79.0 °F - 69.1 °F 72% 30.11 in 10.0 mi ESE 11.5 mph - N/A   Overcast
10:12 AM 78.8 °F - 69.8 °F 74% 30.11 in 10.0 mi SE 13.8 mph - N/A   Overcast
10:25 AM 78.8 °F - 69.8 °F 74% 30.11 in 10.0 mi SE 16.1 mph - N/A   Mostly Cloudy
10:35 AM 80.6 °F 83.9 °F 69.8 °F 70% 30.11 in 10.0 mi ESE 13.8 mph - N/A   Overcast
10:53 AM 80.1 °F 82.9 °F 69.1 °F 69% 30.11 in 10.0 mi SE 15.0 mph - N/A   Overcast
11:53 AM 78.8 °F - 69.8 °F 74% 30.10 in 10.0 mi SE 12.7 mph - N/A Rain Light Rain
12:53 PM 82.9 °F 85.8 °F 68.0 °F 60% 30.08 in 10.0 mi SE 16.1 mph - 0.00 in   Scattered Clouds
1:53 PM 82.0 °F 84.5 °F 66.9 °F 60% 30.06 in 10.0 mi SE 15.0 mph - N/A   Scattered Clouds
2:53 PM 81.0 °F 83.0 °F 66.0 °F 60% 30.05 in 10.0 mi South 13.8 mph - N/A   Scattered Clouds
3:33 PM 82.4 °F 84.6 °F 66.2 °F 58% 30.04 in 10.0 mi SSE 15.0 mph - N/A   Mostly Cloudy
3:53 PM 81.0 °F 83.8 °F 68.0 °F 65% 30.04 in 10.0 mi SE 11.5 mph - N/A   Scattered Clouds
4:53 PM 78.1 °F - 66.9 °F 68% 30.05 in 10.0 mi SE 13.8 mph - N/A   Partly Cloudy
5:53 PM 77.0 °F - 68.0 °F 74% 30.06 in 10.0 mi SE 13.8 mph - N/A   Clear
6:53 PM 75.9 °F - 69.1 °F 79% 30.07 in 10.0 mi ESE 9.2 mph - N/A   Scattered Clouds
7:53 PM 75.0 °F - 70.0 °F 84% 30.07 in 10.0 mi ESE 9.2 mph - N/A   Partly Cloudy
8:53 PM 75.0 °F - 70.0 °F 84% 30.08 in 10.0 mi ESE 9.2 mph - N/A   Partly Cloudy
9:53 PM 75.0 °F - 70.0 °F 84% 30.09 in 10.0 mi ESE 10.4 mph - N/A   Partly Cloudy
10:53 PM 73.9 °F - 70.0 °F 87% 30.09 in 10.0 mi ESE 10.4 mph - N/A   Partly Cloudy
11:41 PM 73.4 °F - 69.8 °F 88% 30.07 in 10.0 mi SE 12.7 mph 20.7 mph N/A   Mostly Cloudy
11:53 PM 73.9 °F - 69.1 °F 85% 30.07 in 10.0 mi ESE 11.5 mph - N/A   Mostly Cloudy